[[{"header":{"parameterUnit":"m.s-1","parameterCategory":1,"la1":30.2991,"la2":30.254,"lo1":-89.0895,"lo2":-89.0444,"dy":0.0017,"dx":0.0017,"nx":28,"ny":28,"refTime":"2025-05-29T09:00:00:Z","depth":0,"parameterNumber":2,"parameterNumberName":"U-component_of_WINDS"},"data":[0,0,0,0,0,0,0,0,0,0,0,0,0,0,0,0,0,0,0,0,0,0,0,0,0,0,0,0,0,0,0,0,0,0,0,0,0,0,0,0,0,0,0,0,0,0,0,0,0,0,0,0,0,0,0,0,0,0,2.6472,2.6473,0,2.6538,2.6539,2.654,2.6481,2.6479,2.6476,2.6474,2.6539,2.6543,2.6547,0,0,0,0,0,0,0,0,0,0,0,0,0,2.629,2.6294,2.6472,2.6473,2.6473,2.6538,2.6539,2.654,2.6481,2.6478,2.6476,2.6473,2.6538,2.6542,2.6547,0,0,0,0,0,0,0,0,0,0,0,0,0,2.6364,2.6295,2.6472,2.6452,2.6451,2.6538,2.6539,2.654,2.6482,2.6478,2.6475,2.6471,2.6536,2.6542,2.6548,2.6656,0,0,2.6566,2.6569,0,0,0,0,0,0,0,0,2.636,2.6371,2.6454,2.6454,2.6453,2.6498,2.6499,2.6579,2.6483,2.647,2.6474,2.647,2.6528,2.6534,2.6555,2.6659,2.6662,2.6567,2.657,2.6573,2.6574,0,0,0,0,0,0,0,2.6355,2.6367,2.6498,2.6455,2.6455,2.6439,2.6445,2.6514,2.6518,2.6471,2.6467,2.6476,2.6527,2.6549,2.6556,2.6663,2.6566,2.6572,2.6575,2.6578,2.6856,2.686,0,0,0,0,0,0,2.6352,2.6364,2.6496,2.65,2.6397,2.6445,2.6452,2.6487,2.6517,2.6519,2.6479,2.6473,2.6541,2.6549,2.6558,2.6684,2.6573,2.6578,2.6582,2.6852,2.6857,2.6861,0,0,0,0,0,0,2.6349,2.6365,2.6493,2.6431,2.6446,2.6452,2.6491,2.649,2.6512,2.6523,2.6523,2.6501,2.6538,2.6549,2.6632,2.6685,2.6581,2.6586,2.6848,2.6854,2.6859,2.6939,0,0,0,0,0,0,2.6344,2.6364,2.6406,2.6432,2.6449,2.6568,2.6495,2.6494,2.6523,2.6516,2.6544,2.6545,2.6536,2.6623,2.6637,2.6692,2.6591,2.6843,2.685,2.6857,2.6932,2.6947,2.696,0,0,0,0,0,2.6337,2.6426,2.6409,2.6425,2.6503,2.6571,2.658,2.6569,2.6528,2.6569,2.6576,2.6544,2.6678,2.6632,2.6648,2.6705,2.6839,2.6848,2.6857,2.6925,2.6944,2.696,0,0,0,0,0,0,2.6406,2.6429,2.641,2.6511,2.6539,2.6561,2.6613,2.659,2.663,2.6622,2.6605,2.6612,2.6698,2.671,2.6658,2.6809,2.6752,2.6764,2.6798,2.6816,2.683,2.6824,2.6596,0,0,0,0,0,2.6433,2.6488,2.6505,2.6591,2.6607,2.6608,2.6637,2.6625,2.6654,2.6666,2.6678,2.6706,2.6754,2.6786,2.6831,2.6933,2.6937,2.698,2.6994,2.7006,2.7016,2.7068,2.7086,2.6889,2.6889,2.6889,0,0,2.649,2.6509,2.6544,2.6606,2.6626,2.6681,2.6618,2.668,2.6719,2.6675,2.6752,2.6763,2.6793,2.6885,2.6926,2.6897,2.7071,2.7017,2.7026,2.703,2.7078,2.7097,2.7113,2.6895,2.6894,2.6893,0,0,2.6619,2.6641,2.6714,2.6736,2.6768,2.6767,2.6785,2.681,2.6815,2.6893,2.686,2.6906,2.699,2.7011,2.7033,2.7169,2.714,2.7184,2.7257,2.7308,2.7323,2.7337,2.7382,2.7399,2.7194,2.7195,2.7195,0,2.6684,2.6767,2.6754,2.6817,2.6844,2.6806,2.6878,2.69,2.6945,2.6963,2.6931,2.7033,2.7051,2.7146,2.7179,2.7199,2.7216,2.718,2.7322,2.7336,2.7348,2.7391,2.7409,2.72,2.7199,2.7198,2.7198,0,2.6844,2.6901,2.6956,2.7001,2.7034,2.7101,2.7096,2.7131,2.7117,2.7119,2.7197,2.7217,2.7264,2.7286,2.7272,2.7378,2.7359,2.7325,2.7266,2.7372,2.7412,2.7429,2.7207,2.7205,2.7203,2.7202,0,0,2.7019,2.7054,2.7074,2.7092,2.7124,2.7168,2.7232,2.7278,2.7307,2.7339,2.7391,2.7462,2.7429,2.7454,2.7443,2.7488,2.759,2.7448,2.7448,2.7471,2.7704,2.7727,2.7747,2.7572,2.7575,2.7577,2.77,0,2.7148,2.7261,2.725,2.7357,2.7408,2.7372,2.7427,2.7452,2.7455,2.7498,2.7501,2.7551,2.7506,2.7521,2.7564,2.7568,2.7636,2.756,2.7617,2.762,2.7609,2.7768,2.7794,2.791,2.7716,2.7719,2.7721,0,2.7314,2.7351,2.7462,2.7483,2.7504,2.7555,2.7594,2.7637,2.7663,2.7662,2.7689,2.7669,2.7731,2.7673,2.7757,2.7705,2.7728,2.7734,2.7738,2.7741,2.7675,2.7773,2.7946,2.7963,2.7746,2.7744,2.7742,0,2.7427,2.7505,2.7581,2.7598,2.7625,2.7661,2.7674,2.7697,2.7724,2.7758,2.7775,2.7817,2.7839,2.787,2.7861,2.782,2.7946,2.7888,2.7945,2.7945,2.7972,2.797,2.8149,2.7991,2.7991,2.7991,2.799,0,2.757,2.7639,2.7631,2.7678,2.7753,2.7739,2.7813,2.7822,2.7842,2.7887,2.7859,2.7903,2.7889,2.7931,2.7924,2.7993,2.8004,2.8003,2.8,2.8005,2.8005,2.8018,2.8009,2.7995,2.7994,2.7993,2.7993,0,2.7709,2.7707,2.7787,2.7806,2.7812,2.7866,2.7882,2.7924,2.7925,2.7983,2.7996,2.7997,2.8045,2.8039,2.8093,2.8088,2.8173,2.8162,2.8165,2.8161,2.8218,2.8212,2.841,2.8433,2.8263,2.8265,2.8266,0,2.78,2.7851,2.7876,2.7904,2.792,2.7967,2.7994,2.7982,2.8011,2.8043,2.8082,2.8127,2.8162,2.824,2.8245,2.8285,2.8272,2.8339,2.8278,2.828,2.827,2.8266,2.827,2.835,2.8352,2.8354,2.8355,0,2.796,2.7956,2.7997,2.8037,2.807,2.8101,2.8129,2.8154,2.8144,2.8178,2.8227,2.8254,2.8308,2.8353,2.839,2.8401,2.8376,2.8374,2.8389,2.8393,2.8392,2.839,2.8194,2.837,2.8368,2.8367,2.8366,2.8366,2.8075,2.8119,2.8142,2.8187,2.8207,2.8233,2.8273,2.8279,2.8319,2.8362,2.8352,2.8406,2.8428,2.8476,2.8491,2.8532,2.8507,2.853,2.8535,2.854,2.8546,2.8387,2.8539,2.8539,2.8538,2.8538,2.8538,0,2.8232,2.8244,2.8287,2.8326,2.8361,2.8335,2.8364,2.8395,2.8443,2.8466,2.8501,2.8555,2.8598,2.8605,2.8645,2.8676,2.8665,2.8686,2.8683,2.8685,2.8567,2.8548,2.8694,2.8694,2.8694,2.8694,2.8694,2.8694,2.8317,2.8388,2.8386,2.8465,2.8477,2.853,2.8548,2.8571,2.8589,2.8651,2.8686,2.8691,2.8707,2.8747,2.8784,2.8785,2.8799,2.8825,2.8821,2.871,2.8694,2.8679,2.8662,2.8829,2.8829,2.8936,2.8937,2.8938]},{"header":{"parameterUnit":"m.s-1","parameterCategory":1,"la1":30.2991,"la2":30.254,"lo1":-89.0895,"lo2":-89.0444,"dy":0.0017,"dx":0.0017,"nx":28,"ny":28,"refTime":"2025-05-29T09:00:00:Z","depth":0,"parameterNumber":3,"parameterNumberName":"V-component_of_WINDS"},"data":[0,0,0,0,0,0,0,0,0,0,0,0,0,0,0,0,0,0,0,0,0,0,0,0,0,0,0,0,0,0,0,0,0,0,0,0,0,0,0,0,0,0,0,0,0,0,0,0,0,0,0,0,0,0,0,0,0,0,2.0492,2.0492,0,2.0498,2.0498,2.0498,2.0438,2.0436,2.0435,2.0433,2.0441,2.0442,2.0444,0,0,0,0,0,0,0,0,0,0,0,0,0,2.0425,2.0426,2.0491,2.0492,2.0492,2.0498,2.0498,2.0498,2.0438,2.0436,2.0434,2.0432,2.044,2.0442,2.0444,0,0,0,0,0,0,0,0,0,0,0,0,0,2.0445,2.0427,2.0491,2.0462,2.046,2.0498,2.0498,2.0498,2.0439,2.0436,2.0434,2.0431,2.0439,2.0442,2.0445,2.0511,0,0,2.0453,2.0454,0,0,0,0,0,0,0,0,2.0444,2.0448,2.0467,2.0465,2.0462,2.0465,2.0478,2.0503,2.0439,2.0447,2.0433,2.043,2.0451,2.0452,2.0459,2.0512,2.0512,2.0453,2.0455,2.0456,2.0456,0,0,0,0,0,0,0,2.0443,2.0447,2.0494,2.0467,2.0464,2.0449,2.0449,2.0482,2.0463,2.0446,2.0442,2.0443,2.0449,2.0457,2.0459,2.0512,2.0453,2.0455,2.0457,2.0458,2.0616,2.0619,0,0,0,0,0,0,2.0445,2.0446,2.0494,2.0494,2.0446,2.0452,2.0452,2.0466,2.0462,2.0459,2.0445,2.044,2.0453,2.0456,2.0459,2.0535,2.0456,2.0458,2.046,2.0614,2.0617,2.062,0,0,0,0,0,0,2.0444,2.045,2.0494,2.0469,2.0473,2.0456,2.0472,2.0468,2.0476,2.0462,2.0458,2.0457,2.0452,2.0455,2.0498,2.0534,2.0459,2.0462,2.0611,2.0615,2.0618,2.0689,0,0,0,0,0,0,2.0442,2.045,2.0476,2.047,2.0475,2.0533,2.0475,2.047,2.048,2.0474,2.0472,2.0469,2.045,2.0494,2.0501,2.0537,2.0464,2.0607,2.0613,2.0617,2.0683,2.0694,2.0704,0,0,0,0,0,2.044,2.0496,2.0478,2.0484,2.0507,2.0536,2.0538,2.0515,2.0483,2.0509,2.0499,2.0469,2.0529,2.0499,2.0506,2.0543,2.0605,2.0611,2.0617,2.0678,2.0692,2.0704,0,0,0,0,0,0,2.0508,2.0495,2.0474,2.053,2.0534,2.0525,2.0557,2.0531,2.0545,2.0538,2.0509,2.0509,2.0556,2.0554,2.0521,2.0606,2.0561,2.0569,2.0606,2.0619,2.063,2.0629,2.0466,0,0,0,0,0,2.0529,2.0554,2.0541,2.0591,2.0594,2.0575,2.0587,2.0568,2.0572,2.0574,2.0567,2.0572,2.0591,2.0605,2.0623,2.0682,2.068,2.0711,2.0721,2.073,2.0737,2.0766,2.0779,2.0639,2.0639,2.0639,0,0,2.0574,2.0569,2.0587,2.0605,2.0606,2.0631,2.0577,2.0607,2.0625,2.0578,2.0618,2.0613,2.0616,2.0667,2.0689,2.0666,2.0775,2.0738,2.0745,2.0747,2.0774,2.0787,2.0799,2.0643,2.0643,2.0642,0,0,2.0667,2.0667,2.0708,2.0709,2.0711,2.0698,2.0707,2.0702,2.0697,2.0736,2.07,2.0721,2.0756,2.0759,2.0765,2.0856,2.0828,2.0863,2.0919,2.0947,2.0958,2.0968,2.0999,2.1011,2.087,2.087,2.087,0,2.0722,2.0759,2.0732,2.0763,2.0771,2.0728,2.0769,2.0772,2.078,2.0786,2.076,2.0801,2.08,2.085,2.0872,2.0879,2.0888,2.0863,2.0959,2.0968,2.0977,2.1006,2.1018,2.0874,2.0874,2.0873,2.0873,0,2.0826,2.0852,2.0884,2.0891,2.0903,2.0939,2.0916,2.0931,2.0911,2.09,2.0939,2.0936,2.0951,2.0961,2.0943,2.1008,2.0994,2.0964,2.0919,2.0995,2.1022,2.1033,2.088,2.0878,2.0877,2.0876,0,0,2.0965,2.0954,2.0966,2.0968,2.0965,2.0984,2.1017,2.1031,2.1044,2.105,2.1076,2.1105,2.1077,2.1084,2.1064,2.109,2.116,2.1057,2.1056,2.1075,2.123,2.1252,2.1266,2.1142,2.1144,2.1145,2.123,0,2.1055,2.111,2.1085,2.1143,2.1165,2.1123,2.1151,2.1153,2.1143,2.116,2.1148,2.1169,2.1131,2.1134,2.1158,2.1147,2.1191,2.1141,2.1165,2.1166,2.1165,2.128,2.1304,2.1384,2.124,2.1242,2.1243,0,2.1168,2.1177,2.1237,2.1227,2.1236,2.1262,2.1271,2.1288,2.1288,2.1278,2.1285,2.1259,2.1289,2.1244,2.1285,2.1251,2.126,2.1256,2.1258,2.1259,2.1209,2.1284,2.1409,2.1421,2.126,2.1259,2.1258,0,2.1261,2.1288,2.1326,2.1329,2.132,2.1339,2.1336,2.1333,2.1342,2.135,2.1355,2.1367,2.1374,2.1383,2.1361,2.133,2.1404,2.1358,2.1397,2.1397,2.1414,2.1414,2.1542,2.1421,2.1421,2.1421,2.142,0,2.1364,2.1402,2.1368,2.1392,2.1432,2.1402,2.1443,2.1436,2.1433,2.1454,2.1418,2.1439,2.1408,2.1425,2.1408,2.1444,2.1447,2.144,2.1435,2.1443,2.1444,2.1448,2.1442,2.1424,2.1423,2.1422,2.1422,0,2.1475,2.1454,2.1493,2.148,2.1477,2.1508,2.1496,2.1517,2.1503,2.153,2.1535,2.1514,2.1532,2.151,2.1527,2.1515,2.1563,2.155,2.1563,2.1559,2.1599,2.1595,2.1734,2.175,2.162,2.1621,2.1622,0,2.1543,2.157,2.1559,2.157,2.1569,2.1587,2.1595,2.1566,2.1577,2.1577,2.1597,2.1612,2.1622,2.1653,2.1639,2.1651,2.1638,2.1685,2.1639,2.1646,2.1637,2.1635,2.1637,2.1695,2.1697,2.1698,2.1699,0,2.1663,2.165,2.1663,2.1672,2.1683,2.1689,2.1692,2.1703,2.1672,2.1685,2.1703,2.171,2.1726,2.1741,2.1749,2.1745,2.1717,2.1713,2.1723,2.1731,2.1737,2.1733,2.1588,2.171,2.1709,2.1708,2.1708,2.1707,2.1754,2.1775,2.177,2.1785,2.1784,2.1787,2.1805,2.1793,2.1806,2.1816,2.1798,2.182,2.1816,2.1824,2.1823,2.1839,2.1819,2.1833,2.1836,2.184,2.1845,2.1735,2.1841,2.184,2.184,2.184,2.1839,0,2.1871,2.1865,2.1879,2.1883,2.1895,2.1866,2.1867,2.1878,2.1898,2.1896,2.1906,2.1925,2.1939,2.1925,2.1936,2.1951,2.1938,2.1955,2.1953,2.1953,2.1864,2.1854,2.1965,2.1965,2.1965,2.1965,2.1965,2.1965,2.1934,2.1968,2.1955,2.1987,2.1981,2.2001,2.2004,2.2006,2.2004,2.2027,2.2037,2.2028,2.2021,2.2031,2.2041,2.2037,2.2042,2.2063,2.2054,2.1972,2.1959,2.1947,2.1938,2.2065,2.2065,2.2141,2.2142,2.2143]}]]